User: anonymous   Login
Location: Unspecified
(0.0000°N, 0.0000°E)
Time: 06:54:25
(UTC+00:00)
Language:

MERIDIAN 4 - Orbit

View from above orbital plane
View from above orbital plane
View from above satellite
View from above satellite

Ground track
Ground track

The orbit data is extracted from the following two-line orbital elements,

1 37398U 11018A   18349.65610328 +.00000191 +00000-0 +10000-3 0  9992
2 37398 064.4271 105.6760 7029165 258.3569 222.4023 02.00598740055807
Epoch (UTC): 15 December 2018 15:44:47
Eccentricity: 0.7029165
inclination: 64.4271°
perigee height: 1511 km
apogee height: 38846 km
right ascension of ascending node: 105.6760°
argument of perigee: 258.3569°
revolutions per day: 2.00598740
mean anomaly at epoch: 222.4023°
orbit number at epoch: 5580

The dashed part of the orbit path shows where the satellite is in the earth's shadow,  

DLR